{"data":{"norad_id":65637,"epoch":"2026-09-20T07:52:56.113536Z","epoch_age_seconds":123549,"freshness":"FRESH","line1":"1 65637U 25210R   26263.32842724  .00015294  00000+0  46280-3 0  9991","line2":"2 65637  53.1587 118.5748 0001077  48.9855 311.1241 15.34404103 57590","mean_motion":15.34404103,"eccentricity":0.0001077,"inclination_deg":53.1587,"raan_deg":118.5748,"arg_perigee_deg":48.9855,"mean_anomaly_deg":311.1241,"bstar":0.0004628,"rev_number":5759,"period_min":93.84750713222,"perigee_km":461.95428807314,"apogee_km":463.42780243409,"semimajor_km":6840.8280452536,"source":"CELESTRAK","updated_at":"2026-09-21T09:00:35.675676Z"}}